Regional Weather Roundup
Issued by NWS Sterling, VA

Home | Current Version | Previous Version | Graphics & Text | Print | Product List | Glossary On
Versions: 1 2 3 4 5 6 7 8 9 10 11 12 13 14 15 16 17 18 19 20 21 22 23 24 25 26 27 28 29 30 31 32 33 34 35 36 37 38 39 40 41 42 43 44 45 46 47 48 49 50
390
ASUS41 KLWX 272310
RWRLWX

REGIONAL WEATHER ROUNDUP
NATIONAL WEATHER SERVICE BALTIMORE MD/WASHINGTON DC
700 PM EDT MON MAR 27 2017

Note: "FAIR" indicates few or no clouds below 12,000 feet
with no significant weather and/or obstructions to visibility.
 TC=TEMPERATURE CELSIUS

 * =Non NWS site. Station does not report precipitation (e.g. rain,
    snow, etc.), thunder, or fog.

DCZ001-MDZ009-015-VAZ040>042-051-053>054-280000-
WASHINGTON METRO

CITY           SKY/WX    TMP DP  RH WIND       PRES   REMARKS
WASHINGTON NAT MOCLDY    69  56  62 E14       29.91F
DULLES         MOCLDY    72  55  55 SE5       29.91S
ANDREWS AFB    PTCLDY    67  56  67 E10       29.91F
FT BELVOIR     MOCLDY    74  55  51 CALM      29.91S
QUANTICO       MOCLDY    64  54  69 SW7       29.92S
COLLEGE PARK*  CLEAR     69  55  61 E5        29.92R
LEESBURG*      MOCLDY    73  59  60 E3        29.93R
MANASSAS*        N/A    N/A N/A N/A E3        29.91S

$$

MDZ006>007-011-014-280000-
BALTIMORE METRO

CITY           SKY/WX    TMP DP  RH WIND       PRES   REMARKS
BWI AIRPORT    MOCLDY    63  55  75 E7        29.93S
MD SCIENCE CTR   N/A     62  52  69 MISG      29.94F
MARTIN STATE   PTCLDY    63  57  82 CALM      29.95F
ANNAPOLIS      CLEAR     62  55  77 SE3       29.93F
FORT MEADE*    CLEAR     64  54  68 E3        29.95S

$$

MDZ012-015-019>023-280000-
MARYLAND EASTERN SHORE

CITY           SKY/WX    TMP DP  RH WIND       PRES   REMARKS
OCEAN CITY     CLOUDY    61  51  70 SW8       29.99S
SALISBURY      CLEAR     69  56  62 S13       29.96S
BAY BRIDGE AP* CLEAR     68  57  68 E5        29.93F
CAMBRIDGE*     CLEAR     66  57  72 SE8       29.95S
EASTON*        MOCLDY    72  57  60 S6        29.98S

$$

MDZ017>025-280000-
SOUTHERN MARYLAND

CITY           SKY/WX    TMP DP  RH WIND       PRES   REMARKS
PATUXENT RIVER MOCLDY    57  53  86 E7        29.94R
ST INIGOES     PTCLDY    71  56  58 S7        29.93S
LEONARDTOWN*   CLEAR     72  55  56 S5        29.95S

$$

MDZ003>005-280000-
NORTH CENTRAL MARYLAND

CITY           SKY/WX    TMP DP  RH WIND       PRES   REMARKS
FREDERICK*     CLEAR     72  61  68 CALM      29.95S
HAGERSTOWN APT PTCLDY    68  57  68 S12       29.92R
WESTMINSTER*   CLEAR     68  55  64 CALM      29.94R

$$

MDZ501>502-280000-
WESTERN MARYLAND

CITY           SKY/WX    TMP DP  RH WIND       PRES   REMARKS
OAKLAND*       CLOUDY    59  46  63 SW5       29.97S
CUMBERLAND*    PTCLDY    72  46  40 SW6       29.94S

$$

VAZ025>031-280000-
SHENANDOAH VALLEY

CITY           SKY/WX    TMP DP  RH WIND       PRES   REMARKS
WINCHESTER*    MOCLDY    66  55  68 CALM      29.92S
FRONT ROYAL*   CLOUDY    68  59  73 W5        29.92R
LURAY*         CLOUDY    72  54  53 W9G18     29.93R
NEW MARKET*    CLOUDY    70  50  49 W3        29.91R
STAUNTON*      LGT RAIN  64  55  72 N8        29.96R
WAYNESBORO*    MOCLDY    70  58  65 S9G18     29.93F

$$

WVZ021-048>050-054>055-280000-
EASTERN WEST VIRGINIA PANHANDLE

CITY           SKY/WX    TMP DP  RH WIND       PRES   REMARKS
MARTINSBURG    PTCLDY    69  56  62 SE5       29.91S
PETERSBURG*    PTCLDY    74  51  45 S5        29.91F

$$

VAZ036>039-050-280000-
CENTRAL FOOTHILLS

CITY           SKY/WX    TMP DP  RH WIND       PRES   REMARKS
CHARLOTTESVILL MOCLDY    75  56  51 S7        29.91S
CULPEPER*      CLOUDY    75  57  52 S6        29.92R
ORANGE*        PTCLDY    72  54  53 S5        29.93S
GORDONSVILLE*  PTCLDY    73  57  57 S7        29.91F
WARRENTON*     CLOUDY    76  51  42 CALM      29.90S

$$

VAZ055>057-280000-
NORTH AND CENTRAL PIEDMONT

CITY           SKY/WX    TMP DP  RH WIND       PRES   REMARKS
FREDERICKSBRG* CLEAR     76  57  51 S9        29.90F
STAFFORD*      CLEAR     74  55  50 SW3       29.95S

$$

NCZ024-NYZ072-PAZ021-071-VAZ022-071-280000-
OTHER REGIONAL OBSERVATIONS

CITY           SKY/WX    TMP DP  RH WIND       PRES   REMARKS
NEW YORK CITY  PTCLDY    49  44  83 CALM      30.01S
PHILADELPHIA   MOCLDY    58  52  80 E3        29.97S
PITTSBURGH     CLOUDY    67  48  50 SW7       29.89F
ROANOKE        CLOUDY    73  55  53 S10       29.94R
RICHMOND       CLOUDY    74  57  55 S9        29.94S
RALEIGH        MOCLDY    76  57  51 S10       29.97S

$$

ANZ530>537-280000-
MARINE OBSERVATIONS

STATION/POSITION TIME  TEMP    WIND        PRES
                       AIR SEA DIR/SP/G
                 (UTC) (F)     (DEG/KT/KT) (MB)
THOMAS PT LIGHT  2300   64 46  100/  7/  7   N/A
BALT KEY BRIDGE  2248   58     130/  5/  5 1013.5F
COVE POINT       2248   54     180/  9/ 10 1014.4S
LEWISETTA        2248   72 53  210/  7/ 10 1013.5R
SOLOMONS ISLAND  2248   56 47   70/  9/ 10   N/A
PINEY POINT      2248          190/ 10/ 10   N/A

$$





USA.gov is the U.S. government's official web portal to all federal, state and local government web resources and services.